Regional Weather Roundup
Issued by NWS

Home | Current Version | Previous Version | Graphics & Text | Print | Product List | Glossary On
Versions: 1 2 3 4 5 6 7 8 9 10 11 12 13 14 15 16 17 18 19 20 21 22 23 24 25 26 27 28 29 30 31 32 33 34 35 36 37 38 39 40 41 42 43 44 45 46 47 48 49 50
687
ASUS45 KTFX 082310
RWRMT
MONTANA REGIONAL WEATHER ROUNDUP
NATIONAL WEATHER SERVICE GREAT FALLS MT
400 PM MST THU DEC 08 2016

NOTE: "FAIR" INDICATES FEW OR NO CLOUDS BELOW 12000 FEET WITH NO
SIGNIFICANT WEATHER AND/OR OBSTRUCTIONS TO VISIBILITY.

MTZ001>007-043-090000-
WEST OF THE DIVIDE

CITY           SKY/WX    TMP DP  RH WIND       PRES   REMARKS
KALISPELL      CLEAR     10  -1  61 N16       30.24F WCI  -7
MISSOULA       PTCLDY    17   2  51 E10       30.19F WCI   5
BUTTE          CLOUDY     6  -2  69 S16       30.05F WCI -12
MULLAN PASS    CLOUDY     1  -2  87 VRB6      29.93F WCI -10
ANACONDA         N/A     14   0  52 SE8       30.07S WCI   3
DEER LODGE       N/A      9  -2  61 NW7       30.12F WCI  -3
EUREKA           N/A      1  -4  78 E3        30.34F
HAMILTON         N/A     18   3  53 CALM      30.14F
LIBBY            N/A     12   3  67 CALM      30.29F
RONAN            N/A     13   4  67 CALM      30.24F
$$

MTZ008-052>055-090000-
SOUTHWEST MONTANA

CITY           SKY/WX    TMP DP  RH WIND       PRES   REMARKS
BOZEMAN        CLOUDY    10   0  63 NW3       30.19F
DILLON         CLOUDY    11  -2  56 SE6       30.08F WCI   1
W YELLOWSTONE  CLOUDY     9  -4  56 CALM      30.07F
ENNIS          CLEAR     10   3  72 N9G15     30.13S WCI  -2
THREE FORKS      N/A     11 -72   1 CALM      30.17F
TWIN BRIDGES     N/A     12  -5  46 N9        30.09F WCI   0
$$

MTZ009-010-012-014-046-048-049-054-090000-
EAST SLOPES AND CENTRAL MONTANA

CITY           SKY/WX    TMP DP  RH WIND       PRES   REMARKS
CUT BANK       CLOUDY    -1  -8  72 E7        30.35F HAZE    WCI -14
GREAT FALLS    LGT SNOW   0  -6  76 SE3       30.37F
MALMSTROM AFB  MOCLDY    -1  -6  78 E5        30.40F
HELENA         CLOUDY     4  -5  66 N10       30.27F WCI -11
AUGUSTA        SNOWSHWR  -4  -9  79 NE3       30.28F
BOWMANS CRNR   CLOUDY    -6 -10  85 NE8       30.27F WCI -22
CHOTEAU          N/A      0  -6  78 MISG      30.35F HAZE
FAIRFIELD      MOCLDY    -1  -8  74 E5        30.34F
POWER            N/A     -1  -8  73 NE3       30.36F
RAYNESFORD     FLURRIES  -1  -6  80 NW5       30.33F
ULM            MOCLDY    -6 -11  78 NE6       30.38F WCI -19
$$

MTZ011-013-016-021-045-047-050-051-090000-
NORTH CENTRAL MONTANA

CITY           SKY/WX    TMP DP  RH WIND       PRES   REMARKS
HAVRE          CLOUDY     1  -7  68 NE6       30.52F WCI -10
LEWISTOWN      CLEAR      3  -4  72 E7        30.31F WCI  -9
N BAR RANCH      N/A      5  -6  61 SE5       30.30S
CHINOOK          N/A      1  -8  66 CALM      30.55F
DENTON         MOCLDY     1  -4  78 E8        30.35F WCI -13
GEYSER         FLURRIES  -1  -5  80 NE8       30.33F WCI -15
GRASS RANGE      N/A      5  -2  72 NE8       30.32S WCI  -8
JUDITH GAP       N/A      4  -3  71 S13       30.24F WCI -13
ROY            CLOUDY     4  -3  74 MISG      30.37F
STANFORD       SNOWSHWR  -2  -5  87 NE7       30.29F WCI -15
WINIFRED       MOCLDY     2  -2  83 MISG      30.37S
$$

MTZ017>020-022>027-061-062-090000-
NORTHEAST MONTANA

CITY           SKY/WX    TMP DP  RH WIND       PRES   REMARKS
GLASGOW        CLEAR      3  -5  69 N3        30.57F
JORDAN           N/A      5  -5  63 E5        30.51F
SIDNEY         CLEAR     -1  -8  72 NW3       30.62F
WOLF POINT     CLEAR      4  -5  66 NW3       30.62F
PLENTYWOOD       N/A     -4  -9  77 NW3       30.58F
POPLAR           N/A      3  -6  66 CALM      30.62F
SCOBEY           N/A     -2 -14  56 CALM      30.50
$$

MTZ028>42-056>058-090000-
SOUTHCENTRAL AND SOUTHEAST MONTANA

CITY           SKY/WX    TMP DP  RH WIND       PRES   REMARKS
BAKER          CLEAR     -4  -9  79 W3        30.51F
BILLINGS       PTCLDY    10  -2  58 E8        30.35F WCI  -2
LIVINGSTON     CLOUDY     4  -4  69 E13       30.21F WCI -13
MILES CITY     CLEAR      7  -6  55 E6        30.52S WCI  -3
BIG TIMBER     CLEAR      3  -2  78 E12       30.28F WCI -13
FORSYTH          N/A      9  -4  56 E7        30.48F WCI  -3
HARLOWTON        N/A      6  -2  69 E5        30.27F
LAUREL           N/A     10  -9  42 NE7       30.29F WCI  -1
ROUNDUP          N/A     10  -7  46 NE7       30.26S WCI  -1
$$

REGIONAL REPORTS...DAKOTAS

CITY           SKY/WX    TMP DP  RH WIND       PRES   REMARKS
WILLISTON      CLEAR     -4 -12  68 W8        30.63S WCI -19
MINOT          MOCLDY     0  -7  72 W14       30.59F WCI -19
DICKINSON      CLEAR     -4 -10  75 NW10      30.51F WCI -21
BEACH            N/A     -2  -8  78 NW3       30.56S
CROSBY           N/A     -4  -9  77 W9        30.63S WCI -20
TIOGA            N/A     -6  -9  84 W10       30.58F WCI -23
WATFORD CITY     N/A     -4  -9  77 NW5       30.61S
BISMARCK       CLOUDY     2  -3  80 NW10      30.64R WCI -14
GRAND FORKS    FLURRIES  12   7  80 NW10      30.58R WCI  -1
FARGO          LGT SNOW  14   8  77 NW13      30.58S WCI   0
BUFFALO SD       N/A      2  -6  69 N8        30.42S WCI -12
RAPID CITY     CLEAR      8  -5  55 NE7       30.48F WCI  -3
$$

REGIONAL REPORTS...WYOMING/IDAHO/WASHINGTON

CITY           SKY/WX    TMP DP  RH WIND       PRES   REMARKS
GILLETTE       CLEAR      5  -3  69 SE7       30.32F WCI  -7
SHERIDAN       CLOUDY     5  -4  66 CALM      30.33F
BUFFALO WY     CLOUDY     4  -4  69 SE10      30.24F WCI -11
CODY           CLOUDY     4  -5  66 CALM      30.20F
YELLOWSTONE LA   N/A      7  -5  57 CALM      30.03F
IDAHO FALLS    LGT SNOW  18  10  71 N8        30.16F WCI   8
SALMON         CLOUDY    10   3  72 CALM      30.15F
BOISE          LGT SNOW  25  21  85 S13G22    30.12R FOG     WCI  14
SPOKANE        MOCLDY    23   5  46 E15       30.13F WCI  10
$$

REGIONAL REPORTS...ALBERTA

CITY           SKY/WX    TMP DP  RH WIND       PRES   REMARKS
EDMONTON       CLOUDY    -8 -17  65 NE3       30.60F
CALGARY        PTCLDY    -6 -11  77 E9        30.39F WCI -22
LETHBRIDGE     FLURRIES  -6  -9  84 S6        30.47F WCI -18
MEDICINE HAT   PTCLDY    -8 -13  77 S5        30.58F
WATERTON GATE    N/A     -8 -13  77 NE3         N/A
CARDSTON         N/A     -4 -11  71 N1          N/A
MILK RIVER       N/A     -4  -9  77 NE5         N/A
$$

REGIONAL REPORTS...SASKATCHEWAN

CITY           SKY/WX    TMP DP  RH WIND       PRES   REMARKS
SWIFT CURRENT  CLOUDY    -6  -9  84 W7        30.52S WCI -20
REGINA         PTCLDY    -4  -9  77 NW9       30.59F WCI -20
SASKATOON      CRYSTALS  -6 -13  71 NW9       30.67S WCI -22
CYPRESS HILLS    N/A    -11 -17  77 E2          N/A
VAL MARIE        N/A     -8 -15  71 E3          N/A
ROCKGLEN         N/A     -6 -11  77 NW1         N/A
$$




USA.gov is the U.S. government's official web portal to all federal, state and local government web resources and services.